Location: Heechterp
(53.2093°N, 5.8195°E)
Time: 08:58:44
(UTC+00:00)

Daily predictions for brighter satellites

Satellite Brightness Start Highest point End
(mag) Time Altitude Azimuth Time Altitude Azimuth Time Altitude Azimuth
Cosmos 2263 Rocket 3.5 16:54:00 10° NW 16:59:20 47° WSW 17:04:37 10° S
Meteor 1-31 Rocket 4.5 16:56:28 10° SSW 17:00:02 38° W 17:03:38 10° NNW
Cosmos 1975 Rocket 3.8 16:55:46 10° SSW 17:00:09 59° WNW 17:04:32 10° N
SL-08 RB Rocket 3.8 16:55:44 10° SSE 17:00:24 89° W 17:05:06 10° NNW
Radarsat Rocket 4.2 16:56:18 10° SSE 17:02:27 71° ENE 17:09:25 10° NNW
Cosmos 1536 Rocket 3.7 17:00:00 10° S 17:04:11 50° E 17:08:25 10° NNE
Cosmos 1340 Rocket 2.9 17:00:25 10° S 17:04:12 54° E 17:08:05 10° NNE
DMSP B5D2-2 4.5 17:00:31 10° NNE 17:05:33 43° E 17:10:33 10° SSE
Cosmos 1633 4.3 17:04:09 10° ESE 17:05:39 13° E 17:07:10 10° ENE
COSMOS 2455 3.0 17:00:09 10° SW 17:06:11 80° NW 17:12:16 10° NE
Cosmos 2228 3.0 17:02:01 10° N 17:06:14 63° ENE 17:10:25 10° SSE
SMAP 3.6 17:02:16 10° S 17:06:54 67° WSW 17:11:35 10° NNW
Cosmos 1408 2.7 17:08:57 10° SSE 17:12:12 45° E 17:15:32 10° NNE
Cosmos 1606 Rocket 3.8 17:08:15 10° N 17:12:24 44° ENE 17:16:32 10° SE
H-2A R/B 4.3 17:10:22 10° SSW 17:15:01 31° W 17:19:49 10° NNW
Cosmos 1869 4.3 17:14:17 10° N 17:17:33 25° ENE 17:20:51 10° SE
Meteor PRIRODA 3.7 17:14:12 10° S 17:17:45 79° WSW 17:21:20 10° NNW
ATLAS CENTAUR R/B 1.8 17:15:14 10° SW 17:19:55 73° NW 17:24:24 10° NE
NOAA 6 4.1 17:16:07 10° SSE 17:21:17 87° WSW 17:26:30 10° NNW
Cosmos 468 Rocket 3.9 17:21:14 10° NNW 17:26:27 75° ENE 17:31:36 10° SSE
Cosmos 1892 Rocket 4.5 17:25:10 10° SE 17:28:51 27° E 17:32:32 10° NNE
Cosmos 1844 Rocket 2.6 17:23:56 10° NNW 17:29:33 80° ENE 17:35:08 10° SE
CZ-4 R/B 4.4 17:25:36 10° SSE 17:29:40 64° ENE 17:33:46 10° N
COSMO-SKYMED 1 2.9 17:26:23 10° NNE 17:30:34 44° E 17:34:43 10° S
PSLV R/B 4.2 17:29:29 10° SE 17:32:52 36° ENE 17:36:21 10° N
SL-08 R/B 3.4 17:30:25 10° NNE 17:35:24 88° ESE 17:40:21 10° SSW
Lacrosse 4 Rocket 3.7 17:36:17 10° NNW 17:38:15 13° N 17:40:12 10° NE
Cosmos 1328 3.9 17:37:03 10° SSW 17:41:01 82° W 17:44:59 10° N
Lacrosse 5 2.5 17:36:30 10° SSW 17:41:17 42° SE 17:44:52 17° ENE
USA 215 4.2 17:35:06 10° SSE 17:41:24 48° SW 17:47:44 10° WNW
Cosmos 1954 Rocket 4.1 17:36:43 10° S 17:41:50 55° ESE 17:46:55 10° NNE
Cosmos 1763 Rocket 3.8 17:36:51 10° NNW 17:42:04 73° WSW 17:47:08 10° SSE
CZ-4B DEB 4.1 17:37:46 10° SSE 17:43:12 79° ENE 17:48:43 10° NNW
SJ-6B 4.3 17:43:06 18° ENE 17:43:46 18° ENE 17:46:33 10° NNE
Lacrosse 5 rocket 1.2 17:40:14 10° WNW 17:43:47 70° SSW 17:47:25 10° SE
Cosmos 1726 Rocket 3.4 17:39:53 10° N 17:44:12 67° ENE 17:48:30 10° SSE
CZ-4B R/B 3.4 17:39:10 10° SE 17:44:19 48° ENE 17:49:35 10° N
Cosmos 44 4.3 17:41:41 10° W 17:45:47 36° NNW 17:50:05 10° NE
ATLAS 2AS CENTAUR R/B 3.4 17:39:20 10° NW 17:46:15 58° SW 17:52:45 10° SSE
Cosmos 1461 3.6 17:42:42 10° S 17:46:40 37° ESE 17:49:26 18° ENE
Meteor 1-11 4.3 17:41:30 10° S 17:47:13 62° E 17:52:56 10° NNE
Cosmos 1244 Rocket 4.5 17:40:59 10° N 17:47:22 72° ENE 17:53:38 10° SSE
Cosmos 1892 2.5 17:44:28 10° S 17:48:11 76° E 17:51:58 10° NNE
Cosmos 1844 3.8 17:42:56 10° NNW 17:48:48 88° WSW 17:54:34 10° SSE
Cosmos 540 Rocket 3.5 17:48:06 10° NNW 17:53:17 86° WSW 17:58:26 10° SSE
Gblst 52 Del rocket 4.4 17:48:01 10° SW 17:53:30 54° SSE 17:57:11 20° E
Cosmos 1825 2.1 17:51:05 10° S 17:54:41 56° E 17:58:20 10° NNE
Cosmos 841 Rocket 3.5 17:50:22 10° NNW 17:55:40 67° ENE 18:00:53 10° SE
Cosmos 2219 Rocket 3.3 17:51:58 10° SSE 17:56:09 22° ESE 17:57:33 20° E
Cosmos 2278 4.1 17:50:44 10° SW 17:56:23 66° NW 18:02:06 10° NNE
Cosmos 2360 Rocket 2.5 17:51:09 10° S 17:56:27 43° ESE 18:01:12 13° NE
IRIDIUM 104 4.3 17:54:53 10° N 18:00:04 58° E 18:05:12 10° SSE
CZ-4C R/B 3.1 17:56:18 10° NNE 18:00:10 68° ESE 18:03:48 10° S
Cosmos 1745 Rocket 4.1 17:54:30 10° N 18:00:35 50° ENE 18:06:35 10° SSE
Cosmos 1386 Rocket 4.5 17:55:43 10° N 18:01:36 53° ENE 18:07:29 10° SSE
Cosmos 2278 Rocket 3.1 17:58:31 10° NNW 18:03:32 31° NE 18:05:53 23° E
CZ-4 R/B 1.6 18:00:53 10° SE 18:04:49 46° ENE 18:08:42 10° N
Okean O Rocket 1.8 18:02:44 10° SE 18:06:57 47° ENE 18:11:14 10° N
USA 281 4.3 18:01:56 10° NNE 18:08:03 43° NW 18:14:10 10° WSW
Cosmos 2333 Rocket 2.7 18:03:08 10° S 18:08:15 36° ESE 18:11:22 21° NE
IRIDIUM 114 4.2 18:03:59 10° N 18:09:13 68° E 18:14:25 10° SSE
Cosmos 2322 Rocket 2.1 18:03:41 10° SSW 18:09:16 72° ESE 18:14:36 11° NE
Okean-O 3.8 18:11:23 23° NE 18:11:23 23° NE 18:14:34 10° N
SKYMED 3 4.3 18:07:27 10° NNE 18:11:36 76° ESE 18:15:44 10° S
RESURS DK-1 3.0 18:08:16 10° NW 18:12:19 57° WSW 18:16:21 10° SSE
MINOTAUR 4 R/B 4.4 18:12:49 37° E 18:12:50 37° E 18:16:02 10° SSE
Cosmos 1340 2.4 18:09:13 10° N 18:12:54 75° ENE 18:16:34 10° SSE
HJ-1C 4.0 18:14:13 28° N 18:14:13 28° N 18:15:44 10° N
TRACE 4.5 18:09:27 10° NNE 18:13:08 85° ESE 18:16:48 10° SSW
BlueWalker 3 1.9 18:09:29 10° W 18:13:23 90° N 18:14:55 36° E
ATLAS 5 CENTAUR R/B 3.2 18:11:20 10° NW 18:14:49 23° N 18:16:59 17° NE
Cosmos 2369 Rocket 4.1 18:14:44 10° NNW 18:17:41 14° NNE 18:19:26 13° NE
IRIDIUM 103 4.2 18:13:08 10° N 18:18:25 80° E 18:23:37 10° S
SKYMED 2 3.9 18:14:28 10° N 18:18:48 69° WNW 18:23:07 10° SSW
Cosmos 1709 Rocket 4.2 18:13:02 10° N 18:18:56 45° ENE 18:24:45 10° SE
Cosmos 1606 2.9 18:16:35 10° N 18:20:17 44° ENE 18:20:56 39° ESE
SL-4 R/B 1.9 18:18:17 10° W 18:21:47 61° S 18:22:55 38° SE
COSMOS 2428 4.1 18:19:13 10° SSE 18:21:43 19° SE 18:21:43 19° SE
In-Cosmos 22 Rocket 4.3 18:18:08 10° SSW 18:23:58 89° WNW 18:29:51 10° NNE
Cosmos 2058 Rocket 3.0 18:20:03 10° NNW 18:24:28 86° WSW 18:28:54 10° S
SL-16 R/B 2.4 18:18:58 10° SW 18:24:38 72° NW 18:30:15 10° NNE
Cosmos 676 Rocket 4.1 18:21:20 10° SSW 18:26:38 81° WNW 18:31:55 10° NNE
CSL-04 Debris 4.4 18:23:09 19° SE 18:26:41 47° ENE 18:31:50 10° N
IGS 5A 3.5 18:26:03 30° SE 18:27:46 52° ENE 18:31:48 10° N
Cosmos 1553 Rocket 3.8 18:22:12 10° S 18:28:17 78° E 18:34:29 10° NNE
Cosmos 2333 4.4 18:23:01 10° S 18:28:23 48° ESE 18:31:01 28° NE
MOS 1-B 4.4 18:23:06 10° SSE 18:28:54 81° WSW 18:34:46 10° NNW
YAOGAN 1 2.8 18:25:36 10° S 18:29:53 69° WSW 18:34:14 10° NNW
Cosmos 1417 Rocket 4.4 18:25:33 10° S 18:31:42 63° E 18:37:48 10° NNE
CSL-04 Rocket 3.9 18:29:40 28° ESE 18:32:05 46° ENE 18:37:15 10° N
Feng Yun 1-1 Rocket 4.1 18:30:03 10° SSE 18:35:34 77° ENE 18:41:01 10° NNW
Cosmos 1980 Rocket 4.0 18:31:05 10° W 18:35:53 27° NW 18:40:43 10° NNE
IRIDIUM 106 4.5 18:31:27 10° N 18:36:42 76° W 18:41:54 10° S
Genesis I 3.2 18:34:51 10° SSW 18:38:45 59° SE 18:38:52 59° ESE
BREEZE-M DEB (TANK) 4.0 18:27:32 10° SW 18:38:48 37° SSE 18:40:19 31° SE
Cosmos 1943 Rocket 3.3 18:34:11 10° NNW 18:38:53 25° NE 18:39:19 25° NE
Cosmos 1633 3.0 18:36:02 10° SSW 18:39:20 56° WNW 18:42:07 14° N
Resurs 1-3 4.0 18:41:54 43° NE 18:41:54 43° NE 18:45:35 10° N
USA 186 4.2 18:44:48 15° N 18:44:48 15° N 18:45:29 10° N
Cosmos 2322 4.0 18:43:35 10° S 18:48:47 42° ESE 18:48:47 42° ESE
Cosmos 44 Rocket 3.6 18:47:51 10° SSW 18:51:44 44° SSE 18:51:44 44° SSE
COSMOS 2455 4.3 18:47:44 10° W 18:53:00 30° NNW 18:57:02 15° NNE
ATLAS CENTAUR R/B 3.3 18:55:17 10° WNW 18:59:07 25° NNW 19:00:39 21° N
Cosmos-2242 3.8 18:57:28 10° N 19:00:15 38° N 19:00:15 38° N
S3M 3.9 18:57:42 10° S 19:04:06 86° E 19:10:31 10° NNE
IRS-1C Rocket 4.0 19:11:02 64° ENE 19:11:02 64° ENE 19:16:06 10° NNW
Landsat 7 3.6 19:11:41 83° SE 19:11:52 87° ENE 19:16:37 10° NNW
GEOS 3 Rocket 4.4 19:16:16 38° NNE 19:16:16 38° NNE 19:21:04 10° NW
SJ-6B 3.5 19:18:32 52° NW 19:18:32 52° NW 19:21:51 10° NNW
Lacrosse 4 Rocket 3.4 19:14:37 10° NNW 19:16:37 20° N 19:16:37 20° N
Resurs 01 Rocket 3.5 19:22:58 21° N 19:22:58 21° N 19:24:29 10° N
Cosmos 1812 Rocket 4.0 19:17:07 10° NNW 19:20:44 56° NNW 19:20:44 56° NNW
Lacrosse 5 rocket 3.6 19:19:55 10° W 19:22:08 15° SW 19:22:52 15° SW
Lacrosse 5 1.9 19:18:59 10° WSW 19:24:05 75° NNW 19:24:05 75° NNW
Cosmos 1461 3.8 19:21:13 10° WSW 19:25:27 47° NW 19:25:35 47° NNW
Cosmos 2315 Rocket 3.9 19:19:20 10° S 19:25:41 79° E 19:32:06 10° NNE
Meteor 2-2 Rocket 4.1 19:20:34 10° N 19:25:55 74° NE 19:25:55 74° NE
Cosmos 909 Rocket 4.3 19:22:21 10° NW 19:29:57 57° NE 19:30:26 56° NE
SPOT 1/Viking Rocket 4.2 19:32:22 44° N 19:32:22 44° N 19:35:56 10° NNW
Cosmos 2219 Rocket 2.2 19:33:54 10° SW 19:39:20 79° W 19:39:20 79° W
CZ-4 R/B 3.8 19:36:38 10° SW 19:39:54 23° W 19:43:09 10° NW
Cosmos 2360 Rocket 3.1 19:35:03 10° WSW 19:40:28 45° NW 19:43:00 28° N
Okean O Rocket 3.7 19:39:52 10° SSW 19:43:31 25° W 19:47:13 10° NW
Gblst 52 Del rocket 4.4 19:39:25 10° W 19:44:08 63° WSW 19:44:08 63° WSW
Okean-O 4.1 19:48:55 34° NW 19:48:55 34° NW 19:51:35 10° NNW
Cosmos 2278 Rocket 2.3 19:42:29 10° NW 19:47:46 70° W 19:47:46 70° W
BlueWalker 3 4.3 19:48:08 10° W 19:49:43 22° W 19:49:43 22° W
Cosmos 2333 Rocket 2.8 19:46:50 10° SW 19:52:22 52° NW 19:53:26 46° NNW
Cosmos 2322 Rocket 3.8 19:48:53 10° WSW 19:53:50 31° NW 19:56:27 21° N
ATLAS 5 CENTAUR R/B 3.6 19:56:07 10° NW 19:58:21 25° NNW 19:58:21 25° NNW
Cosmos 2369 Rocket 3.9 19:58:39 10° NNW 20:01:13 23° N 20:01:13 23° N
COSMOS 2428 4.3 20:01:27 10° SW 20:03:49 26° SW 20:03:49 26° SW
SL-16 R/B 4.2 20:05:20 10° W 20:09:46 23° NNW 20:12:08 18° N
Cosmos 1943 Rocket 3.5 20:17:44 10° NNW 20:20:51 34° NNW 20:20:51 34° NNW
